STARLINK-1451, 45668

Orbit data source: Space-Track

STARLINK-1451, 45668 is a payload satellite owned by SpaceX/Seattle (US) in LEO that was launched on Thu, 04 Jun 2020 UTC via an FALCON 9 launch vehicle from the Air Force Eastern Test Range (AFETR). Payload-class satellites include a variety of spacecraft equipped with specific instruments for various scientific and technological missions. These include communications satellites like Starlink; space stations such as the ISS; scientific satellites like the Hubble; Earth observation satellites from companies like Planet Labs, Umbra, and HawkEye 360; GPS; miniature CubeSats for education and research; and military/defense satellites.

Loading next visibility...
Identifier
45668, 2020-035M
Orbit
LEO
Country
Flag of USUS
Related business
Manufacturer
SpaceX/Seattle
Mission
Operational Commercial Communications
Bus & Motor
STARLINK, Unknown motor
Mass
260 kg wet, ~248 kg dry
Launch date (UTC)
2020-06-04 (5 years ago)
Launch vehicle
FALCON 9
Launch site
Air Force Eastern Test Range (AFETR)
Object type
Payload
Rocket body
Debris
Shape & HBR
Box + 1 Pan, 10.1 m
Radar Cross Section
13.562 m², Large (>1 m²)

Expand to show TLE details & history
Last TLE update: 12 hours ago

TLE from 12 hours ago
0 STARLINK-1451
1 45668U 20035M   25287.93346698  .00012048  00000-0  82680-3 0  9993
2 45668  53.0549   1.2613 0001424  96.7475 263.3676 15.06379772296769
Epoch: 2025-10-14T22:24Z
TLE epoch observation values (Epoch: 2025-10-14T22:24:11.547Z)
Latitude
-0°
Longitude
1.4984°
Altitude
548.267 km
Speed
7.589 km/s
True Right ascension
00h 05m 02s
True Declination
0° 00' 00"
Sunlit
Object was in full shadow at epoch
Visualization orbit readout
Latitude
Unknown
Longitude
Unknown
Altitude
Unknown
Speed
Unknown
Apparent Right ascension
Unknown
Apparent Declination
Unknown
Sunlit
N/A
Visualization observer readout
Local Sidereal Time
04:40:58
Azimuth
Unknown
Elevation
Unknown
Doppler factor
Unknown
Orbital elements
Apogee altitude
548.53 km
Perigee altitude
546.558 km
Semi-major axis
6,925.681 km
Eccentricity
0.00014
Inclination
53.0549°
RAAN
1.2613°
Arg. of periapsis
96.7475°
True anomaly
263.35139°
Mean anomaly
263.3676°
Eccentric anomaly
263.3595°
Mean motion
3.76573 °/min
Orbital period
95.6 mins
BSTAR
0.0008268
Loading maneuver chart data...
Computing Atmospheric mass density...
Loading historical data...
Loading historical data...
Loading historical data...
Loading historical data...
Loading historical data...
Loading historical data...
Loading historical data...

Documentation

Showing up to 5 results
|